TimeEDT,TemperatureF,Dew PointF,Humidity,Sea Level PressureIn,VisibilityMPH,Wind Direction,Wind SpeedMPH,Gust SpeedMPH,PrecipitationIn,Events,Conditions,WindDirDegrees,DateUTC
12:53 AM,57.9,52.0,81,29.99,10.0,SSE,5.8,-,N/A,,Clear,150,2013-04-30 04:53:00
1:53 AM,57.0,53.1,87,30.00,10.0,SSE,8.1,-,N/A,,Clear,160,2013-04-30 05:53:00
2:53 AM,57.0,53.1,87,30.00,10.0,SSE,5.8,-,N/A,,Clear,150,2013-04-30 06:53:00
3:53 AM,57.0,53.1,87,30.01,10.0,SSE,6.9,-,N/A,,Clear,160,2013-04-30 07:53:00
4:53 AM,55.9,53.1,90,30.02,9.0,SSE,4.6,-,N/A,,Clear,150,2013-04-30 08:53:00
5:53 AM,55.0,53.1,93,30.03,8.0,SSE,6.9,-,N/A,,Clear,150,2013-04-30 09:53:00
6:53 AM,55.0,53.1,93,30.04,6.0,SSE,5.8,-,N/A,,Clear,150,2013-04-30 10:53:00
7:53 AM,57.0,54.0,89,30.06,7.0,SSE,9.2,-,N/A,,Clear,150,2013-04-30 11:53:00
8:53 AM,61.0,54.0,78,30.06,9.0,SSE,9.2,-,N/A,,Clear,150,2013-04-30 12:53:00
9:53 AM,64.0,55.0,73,30.07,10.0,South,11.5,19.6,N/A,,Clear,180,2013-04-30 13:53:00
10:53 AM,66.9,55.0,66,30.07,10.0,SSE,12.7,17.3,N/A,,Clear,160,2013-04-30 14:53:00
11:53 AM,70.0,55.9,61,30.06,10.0,SSW,10.4,-,N/A,,Scattered Clouds,200,2013-04-30 15:53:00
12:53 PM,71.1,52.0,51,30.09,10.0,Calm,Calm,-,N/A,,Scattered Clouds,0,2013-04-30 16:53:00
1:53 PM,57.9,53.1,84,30.10,10.0,NE,9.2,-,N/A,,Overcast,50,2013-04-30 17:53:00
2:53 PM,63.0,55.0,75,30.10,10.0,NE,12.7,-,N/A,,Partly Cloudy,50,2013-04-30 18:53:00
3:53 PM,64.9,55.0,70,30.05,10.0,NE,11.5,-,N/A,,Clear,50,2013-04-30 19:53:00
4:53 PM,64.9,55.0,70,30.03,10.0,NNE,6.9,-,N/A,,Clear,30,2013-04-30 20:53:00
5:53 PM,75.9,51.1,42,30.01,10.0,SSE,13.8,20.7,N/A,,Clear,150,2013-04-30 21:53:00
6:53 PM,75.0,51.1,43,30.01,10.0,SSE,17.3,20.7,N/A,,Clear,150,2013-04-30 22:53:00
7:53 PM,73.9,50.0,43,30.03,10.0,SSE,12.7,19.6,N/A,,Clear,160,2013-04-30 23:53:00
8:53 PM,72.0,50.0,46,30.05,10.0,SSE,6.9,-,N/A,,Clear,150,2013-05-01 00:53:00
9:53 PM,70.0,51.1,51,30.08,10.0,SE,5.8,-,N/A,,Clear,140,2013-05-01 01:53:00
10:53 PM,68.0,51.1,55,30.09,10.0,SSE,8.1,-,N/A,,Clear,150,2013-05-01 02:53:00
11:53 PM,66.0,51.1,59,30.11,10.0,SE,8.1,-,N/A,,Clear,140,2013-05-01 03:53:00